Spirit of St Louis, MO

1:48 AM CST on February 21, 2018 (GMT -0600)
Spirit Of Saint Louis

Weather History for KSUS - February, 2012

Change the Weather History Date:

Sunday, February 12, 2012

  Actual Average Record
Temperature  
Mean Temperature 26 °F -  
Max Temperature 37 °F 44 °F 60 °F (2005)
Min Temperature 14 °F 26 °F -2 °F (2014)
Degree Days  
Heating Degree Days 40    
Moisture  
Dew Point 6 °F    
Average Humidity 48    
Maximum Humidity 74    
Minimum Humidity 23    
Precipitation  
Precipitation 0.00 in - - ()
Sea Level Pressure  
Sea Level Pressure 30.50 in    
Wind  
Wind Speed 7 mph (West)    
Max Wind Speed 13 mph    
Max Gust Speed -    
Visibility 10 miles    
Events      
Averages and records for this station are not official NWS values.
T = Trace of Precipitation, MM = Missing Value Source: NWS Daily Summary

Daily Weather History Graph

Daily Weather History Graph

Search for Another Location

Airport or City:

Trip Planner

Search our weather history database for the weather conditions in past years. The results will help you decide how hot, cold, wet, or windy it might be!

Date:

Astronomy

Feb. 12, 2012 Rise Set
Actual Time 6:57 AM CST 5:36 PM CST
Civil Twilight 6:30 AM CST 6:03 PM CST
Nautical Twilight 5:59 AM CST 6:35 PM CST
Astronomical Twilight 5:28 AM CST 7:06 PM CST
Moon 11:29 PM CST (2/12) 9:20 AM CST (2/12)
Length of Visible Light 11h 33m
Length of Day
10h 38m
Waning Gibbous, 72% of the Moon is Illuminated
Feb 12
Waning Gibbous
Feb 14
Last Quarter
Feb 21
New
Feb 29
First Quarter
Mar 8
Full

Hourly Weather History & Observations

Time (CST) Temp. Windchill Dew Point Humidity Pressure Visibility Wind Dir Wind Speed Gust Speed Precip Events Conditions
12:54 AM 19.9 °F 11.1 °F 3.0 °F 48% 30.59 in 10.0 mi West 6.9 mph - N/A   Clear
1:54 AM 18.0 °F 7.7 °F 3.9 °F 54% 30.59 in 10.0 mi West 8.1 mph - N/A   Clear
2:54 AM 18.0 °F 6.1 °F 3.9 °F 54% 30.57 in 10.0 mi West 10.4 mph - N/A   Clear
3:54 AM 17.1 °F 5.8 °F 3.9 °F 56% 30.58 in 10.0 mi West 9.2 mph - N/A   Clear
4:54 AM 17.1 °F 5.0 °F 3.0 °F 54% 30.61 in 10.0 mi West 10.4 mph - N/A   Clear
5:54 AM 16.0 °F 4.4 °F 3.0 °F 57% 30.62 in 10.0 mi West 9.2 mph - N/A   Clear
6:54 AM 14.0 °F 5.1 °F 3.9 °F 64% 30.63 in 10.0 mi West 5.8 mph - N/A   Clear
7:54 AM 17.1 °F 6.6 °F 3.0 °F 54% 30.62 in 10.0 mi WNW 8.1 mph - N/A   Clear
8:54 AM 21.0 °F 9.3 °F 1.0 °F 42% 30.60 in 10.0 mi NW 11.5 mph - N/A   Clear
9:54 AM 24.1 °F 14.4 °F 1.9 °F 38% 30.59 in 10.0 mi NW 9.2 mph - N/A   Clear
10:54 AM 28.9 °F 18.6 °F 1.0 °F 30% 30.58 in 10.0 mi NNW 12.7 mph - N/A   Clear
11:54 AM 30.9 °F 26.2 °F 1.9 °F 29% 30.54 in 10.0 mi WNW 4.6 mph - N/A   Partly Cloudy
12:54 PM 34.0 °F 28.0 °F -0.0 °F 24% 30.52 in 10.0 mi West 6.9 mph - N/A   Clear
1:54 PM 36.0 °F 30.3 °F 1.0 °F 23% 30.48 in 10.0 mi West 6.9 mph - N/A   Clear
2:54 PM 37.0 °F 34.5 °F 3.0 °F 24% 30.46 in 10.0 mi Variable 3.5 mph - N/A   Clear
3:54 PM 37.0 °F 30.4 °F 3.9 °F 25% 30.44 in 10.0 mi WSW 9.2 mph - N/A   Clear
4:54 PM 35.1 °F 28.6 °F 5.0 °F 28% 30.42 in 10.0 mi SW 8.1 mph - N/A   Scattered Clouds
5:54 PM 27.0 °F 23.0 °F 10.0 °F 49% 30.42 in 10.0 mi SSW 3.5 mph - N/A   Scattered Clouds
6:54 PM 25.0 °F - 12.0 °F 58% 30.41 in 10.0 mi Calm Calm - N/A   Clear
7:54 PM 24.1 °F - 12.9 °F 62% 30.40 in 10.0 mi Calm Calm - N/A   Clear
8:54 PM 21.9 °F - 10.9 °F 63% 30.38 in 10.0 mi Calm Calm - N/A   Clear
9:54 PM 21.9 °F - 14.0 °F 72% 30.35 in 10.0 mi Calm Calm - N/A   Clear
10:54 PM 23.0 °F - 15.1 °F 72% 30.33 in 10.0 mi Calm Calm - N/A   Overcast
11:54 PM 24.1 °F - 15.1 °F 69% 30.30 in 10.0 mi Calm Calm - N/A   Scattered Clouds